TimeEDT,TemperatureF,Dew PointF,Humidity,Sea Level PressureIn,VisibilityMPH,Wind Direction,Wind SpeedMPH,Gust SpeedMPH,PrecipitationIn,Events,Conditions,WindDirDegrees,DateUTC
12:51 AM,72.0,66.9,84,30.02,7.0,Calm,Calm,-,N/A,,Overcast,0,2013-08-23 04:51:00
1:51 AM,70.0,66.9,90,30.01,5.0,NNE,3.5,-,N/A,,Overcast,30,2013-08-23 05:51:00
2:51 AM,68.0,66.0,93,30.02,3.0,SW,3.5,-,N/A,,Overcast,230,2013-08-23 06:51:00
3:51 AM,70.0,66.9,90,30.01,3.0,Calm,Calm,-,N/A,,Overcast,0,2013-08-23 07:51:00
4:51 AM,70.0,66.9,90,30.01,4.0,North,6.9,-,0.00,,Overcast,360,2013-08-23 08:51:00
5:51 AM,69.1,66.9,93,30.03,3.0,NNW,4.6,-,0.03,Rain,Light Rain,340,2013-08-23 09:51:00
6:51 AM,69.1,66.9,93,30.04,3.0,NW,8.1,-,0.00,,Overcast,320,2013-08-23 10:51:00
7:51 AM,69.1,66.0,90,30.05,3.0,North,3.5,-,0.00,,Overcast,350,2013-08-23 11:51:00
8:51 AM,71.1,66.9,87,30.06,4.0,North,5.8,-,N/A,,Overcast,360,2013-08-23 12:51:00
9:51 AM,72.0,66.9,84,30.08,4.0,NE,8.1,-,N/A,,Haze,40,2013-08-23 13:51:00
10:51 AM,75.0,62.1,64,30.09,6.0,ENE,6.9,-,N/A,,Haze,60,2013-08-23 14:51:00
11:51 AM,79.0,59.0,50,30.09,8.0,ENE,9.2,-,N/A,,Scattered Clouds,60,2013-08-23 15:51:00
12:51 PM,80.1,57.9,47,30.09,10.0,East,6.9,-,N/A,,Scattered Clouds,100,2013-08-23 16:51:00
1:51 PM,80.1,57.0,45,30.09,10.0,ESE,10.4,-,N/A,,Mostly Cloudy,110,2013-08-23 17:51:00
2:51 PM,82.9,57.0,41,30.08,10.0,Variable,5.8,-,N/A,,Mostly Cloudy,0,2013-08-23 18:51:00
3:51 PM,81.0,59.0,47,30.07,10.0,NNE,11.5,19.6,N/A,,Mostly Cloudy,30,2013-08-23 19:51:00
4:51 PM,81.0,57.0,44,30.07,10.0,North,9.2,-,N/A,,Scattered Clouds,350,2013-08-23 20:51:00
5:51 PM,79.0,53.1,40,30.08,10.0,NNE,13.8,-,N/A,,Scattered Clouds,20,2013-08-23 21:51:00
6:51 PM,77.0,52.0,42,30.09,10.0,NNE,11.5,-,N/A,,Partly Cloudy,30,2013-08-23 22:51:00
7:51 PM,72.0,52.0,49,30.11,10.0,NE,6.9,-,N/A,,Partly Cloudy,40,2013-08-23 23:51:00
8:51 PM,66.9,52.0,59,30.13,10.0,NE,6.9,-,N/A,,Clear,40,2013-08-24 00:51:00
9:51 PM,66.0,51.1,59,30.16,10.0,NE,4.6,-,N/A,,Clear,40,2013-08-24 01:51:00
10:51 PM,63.0,51.1,65,30.17,10.0,NE,4.6,-,N/A,,Clear,40,2013-08-24 02:51:00
11:51 PM,59.0,51.1,75,30.19,10.0,NNE,6.9,-,N/A,,Clear,30,2013-08-24 03:51:00